Voltar ao catálogo

STARLINK-32580

AtivoComunicaçõesVLEO
NORAD 62075·PAYLOAD·🇺🇸 United States

Lançado Nov 24, 2024 de Vandenberg Space Force Base

Loading…

Próximas Passagens (próximas 24 horas)

TLE

AtualizadoSource: CelesTrak SupGP

Época: Sep 14, 2026, 20:34 UTC

1 62075C 24217U   26257.85743056  .00043266  00000+0  12789-2 0  2572
2 62075  53.1608  21.9775 0001269  80.5154 165.1273 15.34353963    15

Acompanhe STARLINK-32580 em tempo real com AllMySat

Download on the App Store